ヒル彗星

326P/Hill (1999)

English version
Home page
Updated on November 3, 2015

---------------------------------------------------------------------

・ プロフィール

・ 軌道要素

Epoch 1999 May 22.0 TT = JDT 2451320.5
T 1999 May 24.07454 TT                                  MPCW
q   2.7837387            (2000.0)            P               Q
n   0.11952270     Peri.  279.05973     +0.94475721     -0.32501273
a   4.0816503      Node    99.91534     +0.31510160     +0.86495121
e   0.3179870      Incl.    2.46885     +0.09024855     +0.38239525
P   8.25
From 142 observations 1990 Sept. 24-2015 Oct. 23, mean residual 0".6.

・ 光度変化

        m1 = 13.5 + 5 logΔ + 10.0 log r

---------------------------------------------------------------------

軌道要素はM.P.E.C. 2015-U54に掲載されたものです。
光度グラフはComet for Windowsで作成したものです。

---------------------------------------------------------------------

Copyright(C) Seiichi Yoshida (comet@aerith.net). All rights reserved.